{"data":{"norad_id":48597,"intl_designator":"2021-041AW","name":"STARLINK-2255","alt_names":[],"object_type":"PAYLOAD","status":"ACTIVE","operator":null,"country":"US","launch_date":"2021-05-15","launch_site_code":"AFETR","launch_vehicle":null,"mission":null,"orbit_class":"UNKNOWN","rcs_meters":null,"size_class":null,"mass_kg":null,"dimensions":null,"purposes":["comms"],"wikipedia_slug":null,"has_3d_model":false,"image_url":null,"decayed_at":null,"tle_current":{"epoch":"2026-09-19T20:48:07.983648Z","epoch_age_seconds":92057,"freshness":"FRESH","line1":"1 48597U 21041AW  26262.86675907  .00000174  00000+0  17372-4 0  9992","line2":"2 48597  53.1606 315.8539 0001347  90.9463 269.1693 15.31694302296115","mean_motion":15.31694302,"eccentricity":0.0001347,"inclination_deg":53.1606,"raan_deg":315.8539,"arg_perigee_deg":90.9463,"mean_anomaly_deg":269.1693,"bstar":1.7372e-5,"rev_number":29611,"period_min":94.013537696114,"perigee_km":469.8344347006,"apogee_km":471.67952673901,"semimajor_km":6848.8939807198,"source":"CELESTRAK","updated_at":"2026-09-20T09:00:39.138690Z"}}}